[Iaude] MPEC T237: 2023 TG10 [a=1.73,e=0.32,i=30.4,H=22.3]

mpec at marsden.cfa.harvard.edu mpec at marsden.cfa.harvard.edu
Sat Oct 14 03:49:01 EDT 2023


M.P.E.C. 2023-T237                             Issued 2023 October 14, 07:47 UT

     The Minor Planet Electronic Circulars contain information on unusual
         minor planets, routine data on comets and natural satellites,
         and occasional editorial announcements.  They are published
    on behalf of Division F of the International Astronomical Union by the
          Minor Planet Center, Smithsonian Astrophysical Observatory,
                          Cambridge, MA 02138, U.S.A.
			  
             Prepared using the Tamkin Foundation Computer Network

                              MPC at CFA.HARVARD.EDU
            URL https://www.minorplanetcenter.net/    ISSN 1523-6714

                                   2023 TG10                                    


Observations:
     K23T10G  C2023 09 26.31344 00 32 24.53 +09 51 49.5          20.8 GVET237G96
     K23T10G  C2023 09 26.32286 00 32 24.28 +09 51 11.5                VET237G96
     K23T10G* C2023 10 05.40641600 29 52.769-01 21 35.02         21.42wXET237F52
     K23T10G  C2023 10 05.41688800 29 52.501-01 22 25.58         21.40wXET237F52
     K23T10G  C2023 10 05.42734700 29 52.198-01 23 16.11         20.90wXET237F52
     K23T10G  C2023 10 05.43780300 29 51.919-01 24 06.60         21.77wXET237F52
     K23T10G  C2023 10 05.51503400 29 49.865-01 30 19.73         22.02GVET237F51
     K23T10G  C2023 10 05.51567400 29 49.870-01 30 22.75         21.22GVET237F51
     K23T10G KC2023 10 14.22639900 27 30.683-13 26 32.50         21.71GVET237I52
     K23T10G KC2023 10 14.23337400 27 30.524-13 27 06.16         21.26GVET237I52
     K23T10G KC2023 10 14.24147000 27 30.330-13 27 46.19         21.20GVET237I52
     K23T10G KC2023 10 14.24843400 27 30.208-13 28 19.85         20.74GVET237I52

Observer details:
F51 Pan-STARRS 1, Haleakala.  Observers J. Bulger, K. Chambers, T. Lowe, P.
    Minguez, A. Schultz, I. Smith.  Measurers S. Chastel, J. Fairlamb, M.
    Huber, Y. Ramanjooloo, R. Wainscoat, R. Weryk.  1.8-m Ritchey-Chretien +
    CCD.
F52 Pan-STARRS 2, Haleakala.  Observers J. Bulger, T. Lowe, P. Minguez, A.
    Schultz, I. Smith.  Measurers K. Chambers, T. de Boer, J. Bulger, J.
    Fairlamb, H. Gao, M. Huber, C.-C. Lin, T. Lowe, E. Magnier, P. Minguez, Y.
    Ramanjooloo, A. Schultz, I. Smith, R. Wainscoat, R. Weryk.  1.8-m Ritchey-
    Chretien + CCD.
G96 Mt. Lemmon Survey.  Observer R. A. Kowalski.  Measurers B. Gray, D.
    Rankin, F. C. Shelly.  1.5-m reflector + 10K CCD.
I52 Steward Observatory, Mt. Lemmon Station.  Observer J. K. Hogan.  Measurers
    E. C. Beshore, D. Fay, J. B. Fazekas, D. C. Fuls, A. R. Gibbs, A. D.
    Grauer, H. Groeller, J. K. Hogan, R. A. Kowalski, S. M. Larson, G. J.
    Leonard, D. Rankin, R. L. Seaman, F. C. Shelly, K. W. Wierzchos.  1.0-m
    prime focus + CCD.

Orbital elements:
2023 TG10                                                Earth MOID = 0.3445 AU
Epoch 2023 Sept. 13.0 TT = JDT 2460200.5                MPC                     
M 313.97991              (2000.0)            P               Q                  
n   0.43255908     Peri.  248.84804     +0.24321884     -0.96732681             
a   1.7315662      Node   188.14263     +0.96528849     +0.23414211             
e   0.3197137      Incl.   30.35527     -0.09519836     -0.09724355             
P   2.28           H   22.31          G   0.15           U   9                  
Residuals in seconds of arc
230926 G96  0.3+  0.3+    231005 F52  0.0   0.1+    231014 I52  0.2+  0.2-
230926 G96  0.4-  0.3-    231005 F52  0.0   0.1+    231014 I52  0.0   0.3+
231005 F52  0.0   0.1+    231005 F51  0.2-  0.1-    231014 I52  0.3-  0.2-
231005 F52  0.2+  0.1+    231005 F51  0.1+  0.0     231014 I52  0.0   0.2+

Ephemeris:
2023 TG10                a,e,i = 1.73, 0.32, 30                  q = 1.1780
Date    TT    R. A. (2000) Decl.     Delta      r    Elong.  Phase     V
2023 09 14    00 33 47.2 +20 47 46   0.5081  1.4693   150.3    19.8    22.7
...
2023 09 29    00 31 44.1 +06 47 25   0.4048  1.4054   174.4     4.0    21.5
...
2023 10 07    00 29 24.1 -03 30 39   0.3771  1.3727   170.1     7.2    21.4
...
2023 10 13    00 27 46.5 -11 45 53   0.3707  1.3490   158.0    16.1    21.7
2023 10 14    00 27 33.2 -13 07 45   0.3709  1.3451   156.1    17.5    21.7
2023 10 15    00 27 21.1 -14 28 54   0.3713  1.3413   154.1    19.0    21.8
...
2023 10 21    00 26 41.9 -22 11 36   0.3805  1.3188   142.7    27.2    22.0
...
2023 10 29    00 27 49.8 -30 53 06   0.4065  1.2906   129.5    36.5    22.4
...
2023 11 13    00 37 51.8 -41 38 54   0.4790  1.2443   111.0    48.0    23.0

A. U. Tomatic                (C) Copyright 2023 MPC           M.P.E.C. 2023-T237





More information about the Iaude mailing list